Regional Weather Roundup
Issued by NWS

Home | Current Version | Previous Version | Graphics & Text | Print | Product List | Glossary On
Versions: 1 2 3 4 5 6 7 8 9 10 11 12 13 14 15 16 17 18 19 20 21 22 23 24 25 26 27 28 29 30 31 32 33 34 35 36 37 38 39 40 41 42 43 44 45 46 47 48 49 50
000
ASUS43 KTOP 271008
RWRKS

WEATHER ROUNDUP FOR KANSAS
NATIONAL WEATHER SERVICE GOODLAND KS
400 AM CST TUE JAN 27 2015

NOTE:  "FAIR" INDICATES FEW OR NO CLOUDS BELOW 12,000 FEET WITH NO
SIGNIFICANT WEATHER AND/OR OBSTRUCTIONS TO VISIBILITY.

KSZ001>006-013>018-027>032-041>047-271100-
NORTHWEST KANSAS

CITY           SKY/WX    TMP DP  RH WIND       PRES   REMARKS
GOODLAND       CLEAR     44  29  55 W14       30.11F
HAYS           CLEAR     32  19  59 W3        30.09S
HILL CITY      CLEAR     35  28  75 SW3       30.08F
RUSSELL        CLEAR     33  28  81 SW7       30.07F
$$

KSZ061>065-074>080-084>089-271100-
SOUTHWEST KANSAS

CITY           SKY/WX    TMP DP  RH WIND       PRES   REMARKS
DODGE CITY     CLEAR     42  29  59 W9        30.12F
ELKHART          N/A     44  30  57 W12         N/A
GARDEN CITY    CLEAR     35  30  82 W9        30.12F
GREAT BEND     CLEAR     30  25  80 SW6       30.11S
LIBERAL        CLEAR     37  27  65 W7        30.16F
PRATT          CLEAR     37  32  81 W9        30.11F
$$

KSZ066>073-081>083-090>101-271100-
SOUTHEAST KANSAS

CITY           SKY/WX    TMP DP  RH WIND       PRES   REMARKS
CHANUTE        CLEAR     33  30  88 NW5       30.09S
COFFEYVILLE    CLEAR     34  31  88 CALM      30.09R
HUTCHINSON     CLEAR     37  29  72 NW5       30.09S
MEDICINE LODGE   N/A     36  30  79 N6        30.10S
NEWTON         CLEAR     46  30  53 N7        30.11R
PARSONS        CLEAR     31  29  92 CALM      30.09S
WICHITA INTL   CLEAR     36  29  75 CALM      30.09S
WICHITA JABRA  CLEAR     40  32  73 N3        30.09S
WICHITA MCCONL CLEAR     43  33  67 CALM      30.09S
WINFIELD       CLEAR     33  28  81 CALM      30.11R
$$

KSZ007>012-019>026-033>040-048>060-102>105-271100-
NORTHEAST KANSAS

CITY           SKY/WX    TMP DP  RH WIND       PRES   REMARKS
CONCORDIA      CLEAR     36  31  82 CALM      30.08F
EMPORIA        CLEAR     38  29  70 W7        30.09S
LAWRENCE       CLEAR     24  22  91 NW5       30.10R
MANHATTAN      CLEAR     26  24  92 CALM      30.09F
MARYSVILLE     PTCLDY    30  27  86 CALM      30.08F
OLATHE IND     CLEAR     35  29  78 NW6       30.09R
OLATHE EXE     CLEAR     38  31  76 N3        30.07S
SALINA         CLEAR     34  27  75 CALM      30.10S
TOPEKA BILLARD CLEAR     29  25  85 CALM      30.10S
TOPEKA FORBES  CLEAR     33  26  75 N3        30.08S
$$


USA.gov is the U.S. government's official web portal to all federal, state and local government web resources and services.